User: anonymous   Login
Location: Unspecified
(0.0000°N, 0.0000°E)
Time: 18:12:31
(UTC+00:00)
Language:

STARLINK-4672 - Orbit

View from above orbital plane
View from above orbital plane
View from above satellite
View from above satellite

Ground track
Ground track

The orbit is defined by the following mean orbital elements,

1 53592U          26144.60607949 +.00000000 +00000-0 -35362-4 0 00009
2 53592  53.2164 263.4590 0000924  87.5317 272.5781 15.08834958    05
Epoch (UTC): 24 May 2026 14:32:45
Eccentricity: 0.0000924
inclination: 53.2164°
perigee height: 539 km
apogee height: 540 km
right ascension of ascending node: 263.4590°
argument of perigee: 87.5317°
revolutions per day: 15.08834958
mean anomaly at epoch: 272.5781°

The dashed part of the orbit path shows where the satellite is in the earth's shadow,  

DLR